Weather Roundup
Issued by NWS

Home | Current Version | Previous Version | Graphics & Text | Print | Product List | Glossary Off
Versions: 1 2 3 4 5 6 7 8 9 10 11 12 13 14 15 16 17 18 19 20 21 22 23 24 25 26 27 28 29 30 31 32 33 34 35 36 37 38 39 40 41 42 43 44 45 46 47 48 49 50

000
NZUS93 KARX 250159
HRRWXR

CURRENT HOURLY OBSERVATIONS ACROSS
MUCH OF THE UPPER MISSISSIPPI VALLEY
NATIONAL WEATHER SERVICE LA CROSSE WI
900 PM CDT FRI APR 24 2015


...SOUTHEAST MINNESOTA...


CITY           SKY/WX    TMP DP  RH WIND       PRES   REMARKS
ROCHESTER      LGT RAIN  42  39  89 SE17G24   29.80R
ROCHESTER/MAYO CLOUDY    42  42  99 E8G16     29.81R
WINONA         NOT AVBL
AUSTIN         CLOUDY    43  39  87 SE14G22   29.76S
ALBERT LEA     CLOUDY    45  43  93 SE16G22   29.75S
DODGE CENTER   CLOUDY    43  41  93 E14       29.79S
PRESTON        CLOUDY    42  38  86 E12G20    29.81S
OWATONNA       CLOUDY    43  39  87 E14       29.77S
FARIBAULT      CLOUDY    43  39  87 E10G21    29.79R
$$

...ELSEWHERE IN MINNESOTA...


CITY           SKY/WX    TMP DP  RH WIND       PRES   REMARKS
MINNEAPOLIS    CLOUDY    44  41  89 E17       29.80F
INTNL FALLS    CLOUDY    41  20  43 E8        29.91R
DULUTH         CLOUDY    36  23  59 E21       29.91S WCI  25
RED WING       DRIZZLE   45  41  87 E8        29.83S
REDWOOD FALLS  CLOUDY    45  41  86 E14G23    29.69F
MANKATO        CLOUDY    45  37  76 E15G22    29.75R
WORTHINGTON    CLOUDY    48  43  81 SE16G26   29.66R
FAIRMONT       CLOUDY    46  19  34 SE17      29.70R
$$

...SOUTHWEST WISCONSIN...


CITY           SKY/WX    TMP DP  RH WIND       PRES   REMARKS
LA CROSSE      LGT RAIN  46  40  79 VRB7      29.87R
PRAIRIE DU CHI CLOUDY    45  37  76 E10G17    29.84R
BOSCOBEL       CLOUDY    44  38  79 E9        29.88R
LONE ROCK      NOT AVBL
PLATTEVILLE    CLOUDY    43  39  85 E15G23    29.84F
FORT MC COY    CLOUDY    42  38  87 E10       29.90R
VIROQUA        CLOUDY    41  40  97 E16       29.85F
WIS DELLS      CLOUDY    40  37  86 E9G18     29.91S WCI  35
$$

...ELSEWHERE IN WISCONSIN...


CITY           SKY/WX    TMP DP  RH WIND       PRES   REMARKS
MILWAUKEE      CLOUDY    39  33  79 NE7       29.99R WCI  34
MADISON        CLOUDY    40  36  86 E13       29.92F WCI  32
GREEN BAY      CLOUDY    42  20  41 E7        30.00R
EAU CLAIRE     CLOUDY    46  33  60 SE15      29.87S
BLACK RVR FLS  CLOUDY    42  41  95 E8        29.90R
MEDFORD        CLOUDY    47  28  48 SE6       29.90R
WAUSAU         LGT RAIN  44  31  60 E15G21    29.94R
WIS RAPIDS     LGT RAIN  43  34  70 SE10      29.95R
MARSHFIELD     CLOUDY    47  27  45 SE15      29.91R
RICE LAKE      CLOUDY    49  29  45 SE10G16   29.88R
$$

...NORTHEAST IOWA...


CITY           SKY/WX    TMP DP  RH WIND       PRES   REMARKS
DECORAH        CLOUDY    43  39  87 E16       29.80S
MASON CITY     CLOUDY    45  41  86 SE15      29.75S
CHARLES CITY   CLOUDY    45  43  93 E16       29.77R
OELWEIN        CLOUDY    45  41  87 E20       29.78R
$$

...ELSEWHERE IN IOWA...


CITY           SKY/WX    TMP DP  RH WIND       PRES   REMARKS
DES MOINES     CLOUDY    52  46  80 E10       29.67R
IOWA CITY      CLOUDY    47  43  86 E15G22    29.76F THUNDER
FORT DODGE     CLOUDY    48  43  81 E18       29.69R
$$

...NORTHERN ILLINOIS...


CITY           SKY/WX    TMP DP  RH WIND       PRES   REMARKS
CHICAGO-OHARE  LGT RAIN  42  35  76 E7        29.94R
CHICAGO-MIDWAY LGT RAIN  47  32  56 NE17      29.95R
MOLINE         CLOUDY    50  41  71 E17       29.79F
ROCKFORD       CLOUDY    42  36  79 E12       29.91S
PEORIA         CLOUDY    59  32  36 E10       29.81S
$$

NOTE: "FAIR" INDICATES FEW OR NO CLOUDS BELOW 12,000 FEET WITH NO
SIGNIFICANT WEATHER AND/OR OBSTRUCTIONS TO VISIBILITY. WIND
SPEEDS ARE IN MILES-PER-HOUR.



USA.gov is the U.S. government's official web portal to all federal, state and local government web resources and services.